SAS691 ENTC-ENGM

Flight info

Callsign SAS691
Flight time N/A
Altitude 38000
Route AMIMO DCT TUXOT Z101 SOMUB DCT BELGU
Aircraft A21N/M-SDE2E3FGHIRWXY/LB1

Departure

Time 2026-05-06 18:43
Airport Tromsø Airport (ENTC)

Arrival

Time N/A
Airport Oslo-Gardermoen International Airport (ENGM)
Time Latitude Longitude Altitude Speed Heading
2026-05-06 18:17 69.67939 18.90897 42 ft 0 kts 283°
2026-05-06 18:33 69.67936 18.90931 42 ft 4 kts 283°
2026-05-06 18:33 69.67930 18.91007 41 ft 4 kts 283°
2026-05-06 18:34 69.67924 18.91082 38 ft 4 kts 283°
2026-05-06 18:34 69.67919 18.91149 39 ft 4 kts 277°
2026-05-06 18:34 69.67923 18.91211 38 ft 4 kts 222°
2026-05-06 18:34 69.67945 18.91242 37 ft 3 kts 193°
2026-05-06 18:35 69.67951 18.91246 38 ft 0 kts 193°
2026-05-06 18:36 69.67947 18.91244 38 ft 2 kts 193°
2026-05-06 18:36 69.67911 18.91220 38 ft 8 kts 193°
2026-05-06 18:36 69.67847 18.91177 43 ft 11 kts 193°
2026-05-06 18:37 69.67759 18.91119 45 ft 15 kts 193°
2026-05-06 18:37 69.67698 18.91079 45 ft 3 kts 193°
2026-05-06 18:37 69.67668 18.91059 45 ft 6 kts 193°
2026-05-06 18:37 69.67653 18.91052 45 ft 3 kts 186°
2026-05-06 18:38 69.67638 18.91123 47 ft 6 kts 101°
2026-05-06 18:38 69.67637 18.91133 47 ft 0 kts 110°
2026-05-06 18:41 69.67627 18.91224 47 ft 19 kts 105°
2026-05-06 18:41 69.67561 18.91388 47 ft 15 kts 195°
2026-05-06 18:41 69.67377 18.91246 43 ft 37 kts 193°
2026-05-06 18:41 69.67277 18.91111 41 ft 11 kts 188°
2026-05-06 18:42 69.67284 18.91190 40 ft 5 kts
2026-05-06 18:42 69.67331 18.91219 37 ft 9 kts 12°
2026-05-06 18:42 69.67571 18.91377 45 ft 70 kts 13°
2026-05-06 18:42 69.68256 18.91831 33 ft 132 kts 13°
2026-05-06 18:43 69.69238 18.92524 365 ft 145 kts 14°
2026-05-06 18:43 69.70201 18.93210 916 ft 141 kts 13°
2026-05-06 18:43 69.71185 18.93849 1345 ft 151 kts 12°
2026-05-06 18:43 69.72292 18.94507 1867 ft 174 kts 12°
2026-05-06 18:44 69.73519 18.95375 2547 ft 190 kts 15°
2026-05-06 18:44 69.74869 18.96331 3233 ft 211 kts 13°
2026-05-06 18:44 69.76396 18.96839 3920 ft 230 kts 354°
2026-05-06 18:44 69.77922 18.95364 4865 ft 236 kts 326°
2026-05-06 18:45 69.79047 18.91941 5945 ft 238 kts 299°
2026-05-06 18:45 69.79603 18.87413 7065 ft 240 kts 282°
2026-05-06 18:45 69.79922 18.82672 8153 ft 241 kts 281°
2026-05-06 18:45 69.80248 18.77877 9297 ft 243 kts 282°
2026-05-06 18:46 69.80557 18.73048 10371 ft 246 kts 277°
2026-05-06 18:46 69.80416 18.68085 11362 ft 251 kts 255°
2026-05-06 18:46 69.79557 18.63538 12050 ft 274 kts 231°
2026-05-06 18:46 69.77945 18.60068 12437 ft 305 kts 212°
2026-05-06 18:47 69.75985 18.57074 12814 ft 331 kts 210°
2026-05-06 18:47 69.73897 18.53903 13162 ft 354 kts 211°
2026-05-06 18:47 69.71662 18.50417 13499 ft 375 kts 211°
2026-05-06 18:47 69.69324 18.46726 13773 ft 391 kts 211°
2026-05-06 18:48 69.66917 18.42883 14174 ft 399 kts 211°
2026-05-06 18:48 69.64481 18.38982 14694 ft 403 kts 211°
2026-05-06 18:48 69.62019 18.35048 15310 ft 406 kts 211°
2026-05-06 18:48 69.59541 18.31100 15893 ft 409 kts 211°
2026-05-06 18:49 69.57038 18.27114 16380 ft 411 kts 211°
2026-05-06 18:49 69.54534 18.23130 16851 ft 413 kts 211°
2026-05-06 18:49 69.52014 18.19134 17286 ft 416 kts 211°
2026-05-06 18:49 69.49473 18.15117 17703 ft 418 kts 211°
2026-05-06 18:50 69.46917 18.11085 18114 ft 421 kts 211°
2026-05-06 18:50 69.44335 18.07023 18465 ft 424 kts 211°
2026-05-06 18:50 69.41743 18.02958 18811 ft 426 kts 210°
2026-05-06 18:50 69.39173 17.98928 19148 ft 429 kts 211°
2026-05-06 18:51 69.36581 17.94712 19511 ft 431 kts 211°
2026-05-06 18:51 69.33977 17.90444 19873 ft 433 kts 211°